TimeMST,TemperatureF,Dew PointF,Humidity,Sea Level PressureIn,VisibilityMPH,Wind Direction,Wind SpeedMPH,Gust SpeedMPH,PrecipitationIn,Events,Conditions,WindDirDegrees,DateUTC
12:48 AM,30.9,28.0,89,30.21,-9999.0,WNW,9.2,-,N/A,,Unknown,290,2012-11-06 07:48:00
1:48 AM,30.9,28.0,89,30.21,-9999.0,WNW,8.1,-,N/A,,Unknown,290,2012-11-06 08:48:00
2:48 AM,30.0,27.0,88,30.22,-9999.0,West,8.1,-,N/A,,Unknown,280,2012-11-06 09:48:00
3:48 AM,30.0,27.0,88,30.25,-9999.0,West,9.2,-,N/A,,Unknown,280,2012-11-06 10:48:00
4:48 AM,28.9,26.1,89,30.27,-9999.0,WNW,9.2,-,N/A,,Unknown,290,2012-11-06 11:48:00
5:48 AM,28.9,26.1,89,30.27,-9999.0,West,5.8,-,N/A,,Unknown,280,2012-11-06 12:48:00
6:48 AM,30.0,28.0,92,30.29,-9999.0,West,3.5,-,N/A,,Unknown,270,2012-11-06 13:48:00
7:48 AM,30.0,27.0,88,30.30,-9999.0,West,3.5,-,N/A,,Unknown,270,2012-11-06 14:48:00
8:48 AM,37.9,34.0,86,30.29,-9999.0,Calm,Calm,-,N/A,,Unknown,0,2012-11-06 15:48:00
9:48 AM,42.1,36.0,79,30.27,-9999.0,Calm,Calm,-,N/A,,Unknown,0,2012-11-06 16:48:00
10:48 AM,51.1,35.1,54,30.24,-9999.0,Calm,Calm,-,N/A,,Unknown,0,2012-11-06 17:48:00
11:48 AM,52.0,19.9,28,30.22,-9999.0,SW,3.5,-,N/A,,Unknown,220,2012-11-06 18:48:00
12:48 PM,54.0,23.0,30,30.17,-9999.0,South,5.8,-,N/A,,Unknown,190,2012-11-06 19:48:00
1:48 PM,55.0,24.1,30,30.15,-9999.0,South,9.2,-,N/A,,Unknown,180,2012-11-06 20:48:00
2:48 PM,52.0,26.1,37,30.14,-9999.0,South,6.9,-,N/A,,Unknown,190,2012-11-06 21:48:00
3:48 PM,46.9,30.0,52,30.14,-9999.0,Calm,Calm,-,N/A,,Unknown,0,2012-11-06 22:48:00
4:48 PM,44.1,30.0,58,30.12,-9999.0,ESE,4.6,-,N/A,,Unknown,120,2012-11-06 23:48:00
5:48 PM,42.1,30.0,62,30.10,-9999.0,East,4.6,-,N/A,,Unknown,100,2012-11-07 00:48:00
6:48 PM,41.0,30.0,65,30.07,-9999.0,ESE,4.6,-,N/A,,Unknown,120,2012-11-07 01:48:00
7:48 PM,42.1,30.0,62,30.05,-9999.0,East,3.5,-,N/A,,Unknown,100,2012-11-07 02:48:00
8:48 PM,43.0,30.0,60,30.01,-9999.0,ESE,6.9,-,N/A,,Unknown,110,2012-11-07 03:48:00
9:48 PM,42.1,30.0,62,29.98,-9999.0,East,6.9,-,N/A,,Unknown,90,2012-11-07 04:48:00
10:48 PM,41.0,30.9,67,29.94,-9999.0,East,6.9,-,N/A,,Unknown,100,2012-11-07 05:48:00
11:48 PM,39.9,30.0,68,29.91,-9999.0,East,5.8,-,N/A,,Unknown,90,2012-11-07 06:48:00